Volver al catálogo

NOAA 16 DEB

ActivoSSO
NORAD 41206·DEBRIS·🇺🇸 United States

Lanzado Sep 21, 2000 desde Vandenberg Space Force Base

Loading…

Próximos Pases (próximas 24 horas)

TLE

ActualizadoSource: Space-Track

Época: Sep 14, 2026, 08:15 UTC

1 41206U 00055DK  26257.34414069  .00001837  00000-0  78017-3 0  9991
2 41206  98.6131 297.4969 0010310 249.7797 110.2275 14.26500280555291

Sigue NOAA 16 DEB en tiempo real con AllMySat

Download on the App Store